Home   Weather   Resistencia   Past weeks

Flag for Argentina Past Weather in Resistencia, Chaco, Argentina — Yesterday and Last 2 Weeks

Now
77 °F

Clear.


Feels Like: 79 °F
Forecast: 65 / 70 °F
Wind: 5 mph from North

Location: Resistencia Aero.

Current Time: Apr 24, 2017 at 2:24:18 pm

Latest Report: Apr 24, 2017 at 2:00 pm


Visibility: N/A

Pressure: 29.83 "Hg

Humidity: 74%

Dew Point: 68 °F

Location of ResistenciaLocation

Past Weather in Resistencia — Graph

°F

Resistencia Temperature Yesterday

Maximum temperature yesterday: 77 °F (at 1:00 pm)
Minimum temperature yesterday: 57 °F (at 2:00 am)
Average temperature yesterday: 67 °F

High & Low Weather Summary for the Past Weeks

 TemperatureHumidityPressure
High79 °F (Apr 11, 3:00 pm)100% (Apr 10, 1:25 am)30.18 "Hg (Apr 10, 1:25 am)
Low54 °F (Apr 11, 6:39 am)42% (Apr 11, 4:00 pm)29.74 "Hg (Apr 9, 4:00 pm)
Average67 °F86%29.95 "Hg
* Reported Apr 9 1:00 pm — Apr 24 1:00 pm, Resistencia, Weather by CustomWeather, © 2017

Note: Actual official high and low records may vary slightly from our data, if they occured in-between our weather recording intervals... More about our weather records

Advertising

Resistencia Weather History for the Previous 24 Hours

Scroll right to see more
 ConditionsComfort  
Time TempWeatherWind HumidityBarometerVisibility
1:00 pm
Mon, Apr 24
77 °FClear.3 mph74%29.86 "HgN/A
12:00 pm75 °FSunny.3 mph78%29.89 "Hg10 mi
11:00 am75 °FSunny.6 mph78%29.92 "Hg10 mi
10:00 am75 °FSunny.5 mph78%29.89 "Hg10 mi
9:00 am70 °FClear.2 mph88%29.89 "Hg5 mi
8:00 am64 °FClear.2 mph94%29.89 "Hg4 mi
7:00 am64 °FClear.2 mph94%29.89 "Hg10 mi
6:00 am66 °FClear.2 mph88%29.86 "Hg10 mi
5:00 am66 °FClear.2 mph88%29.86 "Hg10 mi
4:00 am68 °FPassing clouds.3 mph83%29.89 "HgN/A
3:00 am68 °FPassing clouds.3 mph83%29.89 "HgN/A
2:00 am68 °FPassing clouds.3 mph83%29.89 "HgN/A
1:00 am66 °FClear.2 mph88%29.89 "Hg10 mi
12:00 am68 °FClear.7 mph78%29.92 "Hg10 mi
11:00 pm
Sun, Apr 23
70 °FPassing clouds.6 mph73%29.92 "HgN/A
10:00 pm70 °FClear.6 mph73%29.92 "Hg10 mi
9:00 pm70 °FClear.7 mph69%29.92 "Hg10 mi
8:00 pm70 °FClear.7 mph64%29.92 "Hg10 mi
7:00 pm72 °FClear.8 mph65%29.92 "Hg10 mi
6:00 pm73 °FSunny.9 mph61%29.92 "Hg10 mi
5:00 pm75 °FSunny.8 mph57%29.92 "Hg10 mi
4:00 pm77 °FSunny.9 mph51%29.95 "Hg10 mi
3:00 pm77 °FPassing clouds.9 mph51%29.98 "HgN/A
Weather by CustomWeather, © 2017

See weather overviewHow to use our weather pages